Wind_Speed
8 6 3 2 6 10 21 25 14 1 3 8 3 4 5 6 5 8 13 8 7 6 13 15 15 13 9 5 2 2 0 1 3 4 6 7 8 9 10 10 10 10 10 9 9 8 8 8 9
8 7 4 1 12 17 25 3 2 6 10 9 10 7 6 8 4 5 5 9 10 8 12 15 15 13 9 7 4 3 4 1 2 3 5 6 7 8 9 10 10 11 10 10 10 10 10 10 10
9 6 5 6 15 21 23 9 3 6 5 7 7 5 7 7 13 10 9 14 14 11 12 15 15 13 12 10 5 3 5 3 3 3 4 5 7 8 9 9 9 9 10 11 10 10 10 10 10
10 7 9 12 18 22 23 10 5 4 4 7 9 12 11 9 15 12 13 15 16 12 10 13 14 12 14 10 9 7 6 4 4 4 5 6 7 8 9 10 10 9 10 10 11 11 12 12 11
9 5 15 21 24 23 22 15 5 9 9 11 10 14 15 12 12 14 15 16 16 8 10 13 13 15 13 14 10 8 8 7 7 5 7 8 9 9 10 11 12 12 12 12 12 12 12 13 14
8 10 19 21 22 22 9 7 9 10 14 12 12 14 13 15 15 14 15 16 13 10 11 13 13 14 14 13 12 10 9 9 9 8 10 11 11 11 12 13 14 14 14 14 14 14 14 15 15
12 11 22 26 27 23 21 15 13 12 15 15 16 10 12 15 17 15 16 15 13 12 13 13 13 13 15 13 13 11 12 12 12 11 12 14 13 13 14 15 17 18 18 18 18 18 18 18 18
13 17 24 24 24 25 15 8 10 11 15 13 19 16 19 19 16 17 16 15 14 13 14 12 14 14 16 15 15 14 13 13 14 14 16 16 17 17 18 19 22 21 21 21 21 21 21 22 21
15 19 23 20 21 18 10 12 11 12 12 16 14 19 14 17 18 18 17 17 16 14 14 14 15 15 16 16 15 14 15 14 15 17 19 19 20 21 21 22 22 23 24 24 24 24 24 24 24
16 17 20 17 17 15 10 8 7 14 17 14 19 25 24 15 18 18 18 17 17 16 15 16 16 17 17 16 15 15 16 17 18 18 18 17 19 21 20 23 24 25 26 26 25 25 26 27 24
18 25 20 22 18 18 15 14 12 14 20 19 24 25 27 21 20 20 19 18 16 16 18 18 16 17 18 17 18 18 17 15 15 16 17 18 19 19 21 22 23 24 24 23 22 22 22 20 21
22 22 22 21 20 17 15 15 17 17 19 18 25 27 21 25 21 22 20 21 22 20 18 18 18 20 19 19 19 17 16 15 14 15 15 16 17 18 20 19 20 19 18 18 18 18 18 18 19
20 22 23 22 21 19 19 18 17 17 19 17 17 24 25 22 24 21 19 21 25 23 21 20 20 21 20 21 18 17 15 13 13 14 15 15 15 16 16 17 16 16 16 16 17 18 18 18 18
20 22 22 21 22 21 22 19 18 23 17 19 18 19 23 22 24 23 20 27 29 25 23 21 22 22 23 21 19 18 15 13 12 14 15 16 15 15 16 17 17 18 17 17 18 18 19 20 20
18 23 23 24 25 25 22 23 27 22 20 25 22 23 24 27 26 25 21 33 32 29 26 25 25 25 25 22 22 19 17 16 15 15 16 17 17 18 18 19 19 20 21 21 19 18 18 19 19
19 21 26 22 21 25 22 27 22 19 23 27 27 23 27 24 25 23 26 34 36 30 28 29 28 27 26 25 25 24 22 21 19 19 18 18 19 21 21 21 21 21 21 21 22 22 22 22 22
18 25 23 23 20 18 21 23 19 20 22 29 27 27 27 25 26 24 29 36 37 35 32 33 32 30 30 29 28 27 27 26 25 23 21 21 21 22 23 23 24 24 24 23 24 24 25 26 25
19 24 25 21 13 18 17 21 24 21 18 18 29 31 28 28 30 29 35 39 41 41 39 35 36 35 33 31 30 31 30 30 30 28 26 24 23 24 25 26 27 27 25 25 26 27 29 30 28
23 26 28 23 21 19 21 21 23 24 24 26 24 29 29 30 31 35 39 45 46 45 39 34 36 37 35 34 34 34 33 33 32 32 29 26 25 25 26 27 27 26 26 27 29 30 31 30 28
24 24 25 25 23 26 28 32 30 26 27 28 31 32 36 36 29 39 44 49 44 43 39 35 36 37 38 37 37 37 37 36 34 32 30 29 27 26 26 25 25 26 27 28 30 32 32 32 30
27 26 26 27 25 29 30 39 32 30 33 33 35 34 30 28 29 39 44 48 42 39 39 38 36 36 39 40 41 40 38 37 36 33 30 29 27 26 26 25 25 27 30 31 31 31 30 31 28
31 24 26 26 26 26 21 30 30 26 24 28 35 34 36 32 29 38 44 45 43 38 38 38 38 37 40 43 42 40 39 39 35 34 29 28 27 26 24 24 25 28 29 29 31 30 26 26 26
38 28 27 26 23 27 34 20 50 19 25 28 29 34 33 33 31 35 42 39 43 39 37 37 39 39 43 40 41 37 37 39 35 30 29 28 28 26 25 25 26 26 28 30 30 26 26 27 26
22 25 27 24 19 23 31 24 59 20 18 10 14 21 21 25 24 29 36 40 39 37 38 33 36 39 42 38 40 34 38 36 33 28 28 28 27 25 25 25 26 27 28 27 27 29 28 26 25
17 16 13 13 13 14 12 21 34 4 4 6 9 12 19 21 22 23 30 36 34 38 33 31 34 36 40 34 36 34 36 34 29 29 30 28 25 22 22 26 28 28 27 29 30 27 24 24 25
21 22 16 10 11 16 18 13 5 12 12 15 15 13 17 24 24 21 23 29 32 37 34 27 26 29 33 31 32 32 33 31 31 30 26 24 21 22 24 26 25 26 27 25 24 23 24 24 25
26 29 25 32 31 14 15 6 11 11 12 19 9 14 15 16 17 20 25 31 35 32 29 28 28 31 30 31 32 31 30 30 27 26 25 22 20 19 23 25 26 25 20 23 24 23 24 24 24
20 21 9 11 4 9 17 20 3 2 1 1 3 10 15 17 18 21 23 28 33 33 33 34 33 35 33 32 29 28 29 28 28 27 23 22 20 19 22 24 23 21 22 24 22 23 23 25 25
16 21 24 18 11 3 5 1 3 9 8 6 4 5 10 14 20 23 24 26 29 33 37 38 35 36 32 32 29 29 31 29 31 30 29 15 21 22 25 23 21 22 21 21 22 24 25 25 25
12 14 16 23 25 19 15 11 4 4 7 11 11 7 8 10 19 23 26 29 33 35 37 38 39 36 37 30 31 31 32 30 29 26 21 23 23 18 20 20 20 18 20 21 23 26 25 24 25
Wind_Direction
320 315 286 289 262 248 262 259 231 204 220 204 133 57 251 216 201 149 172 229 274 272 223 214 206 204 202 179 190 264 180 23 24 22 16 4 3 7 7 2 0 2 3 2 0 0 360 359 357
322 316 311 163 248 274 277 352 338 280 185 184 186 185 212 239 228 213 223 255 264 258 231 216 207 208 205 193 245 188 281 277 343 359 359 353 352 356 0 360 358 356 356 354 353 352 352 350 348
318 309 289 249 248 256 279 323 321 200 179 175 171 161 182 184 224 241 257 262 256 246 230 215 208 205 197 214 225 252 261 256 284 329 335 328 332 339 342 345 347 346 343 341 338 338 339 339 337
305 327 287 257 262 273 282 295 222 275 250 207 212 224 221 235 216 228 244 249 250 231 216 214 212 203 197 240 240 247 249 263 262 284 294 297 303 311 319 325 326 326 327 325 324 327 326 325 323
304 243 252 261 269 269 275 245 270 251 234 216 228 213 220 216 212 221 230 234 239 225 217 219 220 206 215 240 243 247 251 255 257 268 278 280 285 294 301 306 311 313 312 311 311 311 311 313 310
258 255 262 269 273 280 273 224 242 240 235 230 219 211 219 203 221 220 225 232 234 223 224 222 222 223 221 230 232 241 244 246 253 260 269 274 278 281 285 291 298 301 301 301 300 298 299 300 300
266 255 262 272 280 282 289 250 233 237 238 214 215 239 231 211 222 216 219 230 235 219 224 222 218 219 224 230 234 238 242 248 256 264 270 273 276 279 282 288 294 295 294 293 293 294 294 292 291
265 268 271 270 278 280 278 219 224 229 236 226 219 248 240 232 224 213 218 223 227 222 220 216 221 222 226 231 235 238 240 247 259 267 270 276 280 283 286 292 291 289 288 289 290 289 288 289 287
251 261 264 270 280 312 250 252 257 228 244 202 202 223 232 227 221 217 217 220 225 227 224 222 224 225 229 231 235 238 247 258 266 270 276 282 286 287 291 289 290 290 288 287 287 287 286 283 279
252 255 261 269 296 285 276 283 262 245 223 215 213 223 234 229 224 220 215 221 223 226 226 227 229 230 232 232 239 249 259 266 270 273 278 283 283 285 285 286 288 290 288 288 291 289 285 285 288
252 257 272 274 292 280 272 271 277 247 234 233 229 240 247 228 225 221 220 225 228 225 230 232 234 235 234 238 248 257 263 264 267 274 279 282 284 289 290 286 286 286 288 291 288 284 288 285 279
260 263 266 279 271 283 272 267 256 253 245 231 252 256 254 231 233 232 228 230 228 229 230 236 236 236 240 246 256 258 259 259 265 271 279 281 285 284 283 287 287 287 286 286 285 286 284 283 279
255 262 269 268 274 260 263 253 250 247 240 226 227 239 242 240 234 230 230 228 232 227 234 234 240 243 244 251 253 250 251 259 267 275 279 284 292 292 294 292 295 294 293 293 294 292 289 288 287
261 261 265 257 254 261 257 257 249 243 231 228 231 230 240 242 237 230 218 218 241 235 235 242 241 245 247 253 248 245 251 261 278 285 285 291 296 300 299 296 296 294 293 290 286 287 288 287 288
265 265 273 267 265 259 253 254 247 244 237 234 235 221 250 245 233 234 221 225 242 248 240 245 244 247 252 254 246 246 255 266 276 284 288 287 287 291 291 290 289 289 287 286 288 290 292 290 286
268 272 272 272 261 252 238 250 256 259 238 235 232 227 229 242 238 227 214 230 242 249 250 247 248 249 252 254 249 249 255 261 268 276 281 285 285 282 283 284 286 291 294 295 299 300 301 299 299
258 257 259 271 261 231 237 249 258 253 244 235 229 233 227 227 235 219 226 232 248 254 255 250 248 248 251 251 249 252 256 262 267 271 276 282 284 283 283 284 287 292 295 295 296 296 297 296 296
253 252 249 256 265 228 240 252 259 260 251 247 237 232 229 232 232 231 226 235 245 253 259 257 246 248 252 255 255 257 261 265 268 271 273 278 281 282 277 279 283 285 292 296 297 298 297 297 298
258 266 273 270 271 279 269 264 262 259 257 246 235 227 231 229 236 232 230 238 247 250 255 253 249 247 252 256 258 260 264 268 271 271 272 274 277 278 273 273 276 280 292 297 297 296 297 299 300
250 260 264 267 266 273 275 272 269 263 260 253 250 240 236 229 229 231 238 247 255 252 253 252 249 248 251 255 258 260 264 269 272 269 267 269 272 273 271 274 280 283 293 294 295 297 298 299 305
248 250 260 268 274 272 279 274 267 262 258 254 246 247 243 236 219 237 240 248 254 253 250 250 251 249 252 255 258 263 267 268 266 265 268 268 269 271 275 278 281 287 291 291 295 298 302 302 304
259 254 260 265 269 267 264 282 270 267 266 260 255 239 237 232 227 238 243 245 253 256 253 250 250 249 251 256 260 262 264 265 264 269 269 266 268 269 271 274 279 285 287 293 298 301 302 302 303
257 263 267 271 275 287 265 265 274 267 259 256 253 243 227 229 218 233 245 247 256 258 256 250 253 251 252 256 258 260 262 262 267 269 262 261 263 265 267 272 279 282 292 298 301 300 303 309 311
263 260 262 261 262 260 260 245 273 265 265 265 232 222 213 223 216 232 243 249 254 262 264 258 254 256 257 254 258 257 260 265 269 262 259 260 260 261 266 274 281 289 292 298 303 301 302 304 308
250 242 244 241 225 247 260 247 244 200 195 159 158 177 187 190 199 208 237 248 250 261 268 269 263 263 266 259 256 254 258 265 260 255 255 254 254 262 275 286 288 288 294 300 302 301 305 304 305
241 229 232 233 245 261 288 266 210 163 186 195 165 170 209 206 204 216 234 249 256 263 272 268 265 263 263 257 251 251 257 257 251 249 250 249 257 266 272 278 288 290 293 296 296 300 303 305 305
234 245 246 260 271 297 264 271 66 246 285 287 287 238 219 243 234 224 237 260 264 265 267 269 268 263 262 255 253 254 254 249 246 242 240 247 255 278 291 291 293 292 292 294 297 300 302 304 303
230 242 271 232 226 240 254 258 319 215 358 185 118 217 228 244 254 252 250 252 261 268 271 275 271 267 265 257 255 249 244 241 236 235 239 252 259 272 276 281 283 287 290 290 295 302 303 307 305
247 243 243 250 208 257 290 264 107 136 132 108 91 236 244 248 250 251 252 256 260 267 272 272 271 272 267 258 248 240 238 234 233 236 255 239 259 262 282 280 282 286 288 293 299 301 303 301 297
254 259 252 246 243 245 238 267 231 146 172 179 218 240 267 265 273 264 261 260 263 264 265 267 270 273 271 258 246 237 231 230 238 246 259 262 252 275 275 279 285 282 288 298 298 298 297 296 295
Height
3157 3157 3156 3156 3162 3155 3147 3141 3141 3141 3144 3145 3148 3147 3146 3147 3147 3150 3150 3150 3153 3155 3157 3160 3162 3164 3166 3167 3168 3169 3169 3170 3171 3172 3173 3173 3174 3174 3174 3174 3174 3174 3174 3174 3174 3173 3174 3174 3174
3155 3156 3155 3155 3157 3152 3141 3141 3141 3143 3141 3143 3147 3149 3146 3147 3147 3148 3150 3150 3153 3153 3155 3157 3160 3162 3165 3166 3167 3167 3169 3170 3170 3171 3172 3173 3173 3173 3174 3174 3174 3174 3174 3173 3174 3174 3174 3174 3174
3153 3153 3154 3155 3152 3149 3143 3142 3143 3140 3141 3143 3148 3149 3146 3147 3146 3147 3149 3149 3152 3152 3153 3155 3158 3160 3162 3164 3164 3166 3168 3168 3169 3170 3171 3172 3172 3172 3173 3173 3173 3173 3173 3173 3173 3173 3173 3173 3173
3151 3151 3153 3151 3148 3145 3143 3142 3142 3142 3143 3145 3146 3145 3146 3145 3146 3149 3149 3148 3148 3150 3152 3154 3156 3158 3160 3161 3163 3165 3166 3167 3168 3169 3170 3171 3171 3172 3172 3172 3172 3172 3172 3172 3172 3172 3172 3172 3172
3148 3150 3151 3148 3145 3142 3139 3139 3140 3143 3144 3147 3148 3141 3144 3145 3146 3147 3147 3147 3147 3150 3151 3153 3155 3157 3158 3160 3161 3163 3164 3165 3166 3166 3168 3169 3170 3170 3170 3171 3171 3171 3171 3171 3170 3170 3170 3169 3169
3146 3149 3147 3144 3141 3138 3137 3135 3137 3141 3141 3143 3146 3139 3142 3143 3144 3145 3145 3144 3146 3149 3151 3152 3153 3155 3156 3158 3159 3160 3162 3163 3163 3164 3165 3167 3168 3168 3168 3169 3169 3168 3168 3168 3168 3168 3167 3167 3167
3144 3146 3144 3142 3139 3137 3136 3130 3134 3137 3140 3140 3143 3138 3142 3143 3142 3143 3143 3142 3144 3148 3148 3150 3151 3153 3154 3155 3157 3158 3159 3160 3161 3161 3162 3164 3165 3165 3165 3166 3165 3165 3165 3165 3164 3164 3164 3164 3163
3143 3145 3141 3140 3138 3135 3131 3130 3132 3135 3138 3138 3137 3137 3137 3138 3141 3141 3141 3142 3142 3145 3146 3148 3149 3151 3152 3153 3154 3155 3156 3157 3158 3159 3159 3160 3160 3161 3161 3162 3161 3161 3161 3161 3160 3160 3160 3160 3160
3140 3140 3136 3136 3135 3133 3127 3128 3130 3133 3135 3134 3135 3133 3133 3136 3138 3139 3140 3141 3141 3142 3145 3145 3147 3149 3150 3151 3152 3153 3153 3155 3155 3155 3156 3157 3157 3157 3158 3157 3157 3157 3157 3156 3156 3156 3155 3154 3154
3138 3136 3133 3134 3131 3129 3128 3127 3129 3132 3133 3132 3128 3127 3130 3134 3136 3137 3137 3138 3140 3141 3142 3144 3145 3146 3147 3148 3149 3150 3151 3151 3152 3152 3152 3153 3152 3152 3154 3153 3152 3152 3151 3150 3150 3150 3149 3148 3149
3134 3131 3130 3128 3129 3126 3126 3127 3128 3129 3130 3130 3126 3126 3131 3131 3132 3133 3134 3135 3137 3139 3140 3141 3143 3144 3145 3146 3146 3147 3148 3148 3149 3148 3148 3148 3148 3148 3147 3147 3146 3145 3145 3145 3144 3143 3143 3143 3143
3130 3128 3127 3126 3125 3123 3122 3125 3125 3127 3126 3128 3125 3122 3125 3128 3129 3130 3131 3131 3133 3135 3138 3139 3139 3139 3141 3142 3143 3144 3144 3145 3145 3145 3145 3144 3144 3143 3142 3142 3141 3141 3140 3140 3139 3139 3139 3138 3137
3124 3124 3122 3120 3120 3119 3118 3118 3120 3121 3123 3125 3124 3117 3120 3123 3126 3127 3128 3127 3127 3132 3134 3135 3136 3137 3138 3139 3140 3140 3141 3141 3142 3142 3142 3141 3141 3140 3139 3138 3138 3137 3137 3136 3135 3135 3134 3133 3133
3119 3118 3115 3113 3113 3114 3114 3113 3115 3116 3118 3120 3121 3117 3118 3121 3123 3125 3126 3125 3124 3128 3129 3132 3133 3134 3134 3135 3136 3137 3138 3138 3139 3140 3139 3140 3139 3138 3137 3136 3136 3135 3134 3133 3132 3131 3131 3130 3129
3114 3111 3108 3107 3107 3107 3110 3108 3105 3110 3114 3114 3116 3117 3115 3117 3119 3121 3123 3119 3121 3124 3126 3127 3130 3130 3131 3133 3133 3134 3135 3136 3136 3136 3135 3136 3135 3134 3134 3133 3132 3131 3130 3129 3128 3127 3125 3125 3123
3109 3107 3103 3102 3102 3101 3104 3101 3105 3105 3107 3108 3109 3111 3113 3112 3114 3117 3120 3115 3115 3119 3122 3123 3125 3127 3128 3129 3130 3130 3130 3131 3132 3132 3132 3132 3132 3131 3130 3130 3128 3127 3126 3125 3124 3123 3121 3119 3119
3102 3100 3098 3098 3097 3098 3098 3098 3100 3101 3101 3102 3103 3104 3107 3108 3109 3113 3114 3110 3111 3111 3115 3118 3120 3122 3122 3123 3124 3125 3125 3126 3127 3128 3127 3127 3126 3126 3126 3125 3124 3122 3121 3120 3118 3117 3116 3115 3114
3096 3095 3093 3093 3094 3093 3093 3093 3094 3095 3096 3097 3097 3098 3101 3103 3105 3105 3105 3104 3105 3102 3107 3112 3114 3115 3117 3118 3119 3120 3120 3121 3121 3122 3122 3122 3121 3120 3121 3119 3118 3116 3115 3114 3113 3111 3110 3109 3108
3094 3093 3090 3090 3089 3088 3090 3088 3090 3092 3092 3092 3093 3094 3094 3097 3099 3097 3095 3096 3097 3095 3099 3103 3106 3109 3111 3112 3112 3113 3114 3115 3116 3116 3116 3116 3115 3115 3114 3114 3113 3112 3111 3109 3108 3106 3103 3102 3100
3086 3088 3088 3088 3088 3088 3084 3081 3084 3084 3086 3086 3084 3085 3088 3091 3096 3092 3088 3089 3091 3090 3092 3096 3099 3102 3104 3105 3105 3106 3108 3109 3110 3110 3110 3110 3109 3109 3108 3108 3107 3106 3106 3103 3102 3100 3098 3095 3094
3081 3082 3084 3084 3084 3080 3080 3070 3074 3076 3076 3076 3078 3077 3078 3082 3088 3083 3080 3083 3087 3086 3086 3089 3093 3097 3097 3096 3097 3099 3101 3102 3102 3102 3104 3103 3104 3103 3102 3102 3101 3100 3099 3097 3095 3093 3091 3089 3087
3077 3082 3079 3078 3078 3072 3076 3057 3063 3067 3066 3066 3067 3069 3070 3073 3079 3076 3072 3077 3080 3082 3081 3083 3085 3090 3090 3088 3090 3091 3092 3091 3093 3096 3098 3097 3097 3097 3096 3094 3094 3093 3091 3090 3088 3087 3085 3083 3081
3069 3078 3077 3074 3071 3070 3064 3068 3032 3060 3058 3057 3058 3058 3062 3064 3071 3069 3067 3070 3074 3076 3076 3078 3078 3081 3080 3084 3083 3085 3085 3082 3087 3090 3089 3090 3089 3088 3089 3088 3087 3086 3085 3084 3083 3080 3078 3078 3075
3068 3071 3072 3071 3071 3062 3056 3066 3020 3055 3052 3049 3051 3053 3058 3060 3064 3064 3062 3062 3067 3069 3069 3072 3072 3072 3071 3076 3074 3078 3075 3078 3081 3082 3082 3082 3082 3082 3082 3081 3080 3079 3078 3077 3076 3076 3073 3071 3070
3064 3065 3067 3063 3063 3046 3051 3052 3043 3046 3047 3047 3049 3051 3051 3053 3057 3057 3055 3056 3061 3063 3064 3066 3066 3066 3064 3068 3068 3070 3068 3070 3072 3073 3073 3075 3076 3076 3076 3076 3074 3073 3073 3072 3069 3070 3067 3065 3064
3056 3061 3061 3056 3050 3042 3041 3039 3043 3039 3041 3042 3045 3047 3049 3052 3056 3053 3052 3053 3056 3057 3058 3058 3059 3059 3058 3060 3061 3062 3062 3063 3064 3064 3067 3069 3069 3069 3070 3070 3069 3068 3066 3065 3064 3063 3062 3060 3058
3052 3053 3057 3052 3049 3049 3040 3039 3037 3040 3042 3042 3044 3046 3046 3050 3054 3052 3048 3052 3051 3051 3052 3053 3053 3052 3052 3053 3053 3055 3056 3057 3059 3059 3060 3061 3062 3063 3064 3065 3064 3062 3060 3060 3059 3057 3055 3053 3051
3048 3052 3051 3048 3050 3042 3032 3034 3035 3039 3041 3039 3041 3042 3043 3043 3045 3046 3047 3045 3046 3046 3047 3047 3046 3044 3045 3045 3047 3049 3051 3052 3053 3053 3054 3054 3056 3058 3059 3059 3058 3056 3055 3055 3053 3052 3049 3046 3045
3046 3046 3047 3046 3044 3043 3038 3034 3036 3037 3039 3041 3041 3040 3040 3041 3042 3042 3042 3042 3041 3039 3040 3040 3039 3037 3038 3038 3039 3042 3044 3046 3045 3046 3046 3048 3050 3052 3053 3052 3051 3051 3050 3049 3046 3045 3043 3040 3041
3040 3040 3040 3038 3037 3037 3039 3037 3034 3036 3036 3037 3038 3038 3039 3039 3037 3039 3038 3037 3035 3033 3033 3033 3033 3031 3032 3033 3034 3036 3037 3037 3038 3039 3040 3041 3043 3045 3047 3046 3046 3045 3043 3040 3040 3039 3038 3037 3035